sat.trackr.live / text

‹ back to catalog

DEKART

NORAD 46493 · 2020-068H

PAYLOAD ACTIVE UNKNOWN

§ Identity

Operator
Country
CIS
Launch date
2020-09-28
Launch site
PLMSC
Launch vehicle
Mass (kg)
RCS (m²)

External: N2YO · Heavens-Above · Gunter

§ Orbital elements

Epoch: 2026-09-10T03:55:47.298432Z

Period
93.56 min
Inclination
97.8746°
Eccentricity
0.0008036
Mean motion
15.39087912 rev/d
Perigee alt
443.3 km
Apogee alt
454.3 km
Semi-major
6,826.9 km
B*
2.6794e-4
RAAN
268.6404°
Arg perigee
355.9104°
Mean anomaly
4.2073°
Rev number
32,883

§ Raw data

DEKART1 46493U 20068H   26253.16374188  .00010296  00000+0  26794-3 0  99962 46493  97.8746 268.6404 0008036 355.9104   4.2073 15.39087912328838

JSON: /api/v1/satellites/46493 · /tle

For live sub-satellite position, see the globe view (requires WebGL).

§ Visibility from observer

Set your observer location to see the next 7 days of passes ≥ 10°. The values pass through the URL so the page stays shareable.

No JS? Fill the form by hand. The geolocation button needs JavaScript.

§ Radio — SatNOGS DB

ModeDescriptionDownlinkUplink
GMSK Mode U - GMSK4k8 MOBITEX 437.000 MHz

1 transmitter · refreshed weekly from db.satnogs.org